Theta_e
307 309 311 309 308 308 308 310 311 309 309 311 310 309 309 308 305 305 306 305 305 304 306 306 307 307 307 307 307 308 309 311 312 314 315 318 320 323 324 327 328 328 328 328
308 310 309 307 307 310 310 311 311 309 309 310 310 311 310 308 310 309 309 309 307 307 303 303 304 305 306 306 306 307 309 311 312 312 315 315 319 321 322 323 323 322 325 323
309 310 307 309 308 309 309 310 310 311 310 308 308 310 309 308 306 307 306 308 307 308 308 304 300 303 303 304 305 307 308 310 311 312 314 315 316 316 315 316 320 321 322 321
309 308 310 309 310 309 311 307 309 311 312 313 309 312 310 309 309 308 308 307 307 307 305 303 300 300 302 304 305 306 307 309 311 312 313 315 314 310 311 317 318 318 318 318
310 310 310 311 310 308 311 307 308 310 311 312 311 313 312 309 310 310 310 309 308 306 304 304 301 302 303 302 303 305 306 308 310 311 313 313 313 314 315 314 313 312 312 311
309 308 309 310 309 309 307 309 309 308 310 314 311 312 310 309 311 310 309 309 308 305 303 301 302 302 301 302 303 304 305 307 309 310 311 313 312 311 309 308 307 307 307 306
311 310 310 309 310 309 310 311 313 312 314 317 309 311 313 309 308 308 310 310 307 305 304 302 299 298 299 301 302 303 304 306 308 309 309 310 310 311 311 311 308 306 303 302
311 311 310 308 310 312 310 311 312 311 310 309 309 313 312 308 307 306 305 305 305 305 303 302 299 298 299 300 302 302 302 304 305 307 308 309 309 309 308 309 308 307 307 305
308 309 308 308 309 310 311 313 310 311 296 308 309 307 306 307 308 308 308 306 305 304 303 302 299 298 299 300 301 302 302 303 304 305 305 306 306 306 304 304 305 303 303 303
309 311 310 309 310 310 310 309 313 310 311 309 309 309 311 311 312 309 308 307 306 304 303 301 297 297 299 300 301 302 302 303 303 303 304 304 304 303 303 303 303 303 301 296
310 311 310 309 310 310 311 312 311 310 310 311 309 311 306 309 308 309 308 308 308 306 303 301 297 297 299 300 301 301 302 302 301 301 303 304 303 301 301 302 301 300 297 293
309 312 313 310 308 306 308 310 311 312 310 308 309 314 309 308 309 308 308 308 307 305 303 299 297 297 297 299 300 300 301 301 302 301 301 304 303 300 299 298 298 298 295 291
310 315 310 315 311 308 309 308 309 308 306 309 313 315 306 306 307 308 307 307 304 304 302 298 295 294 296 297 298 299 300 300 300 300 300 300 300 298 297 297 297 296 293 289
313 315 315 319 314 310 310 309 310 312 314 315 312 313 312 311 310 308 307 305 304 303 301 298 295 294 295 296 297 298 298 299 299 299 298 297 297 297 297 297 297 296 293 289
316 318 316 315 314 311 311 310 311 313 313 315 315 314 313 312 311 310 309 305 305 305 301 299 298 296 293 294 295 296 297 297 297 297 296 295 295 295 293 294 294 292 289 288
314 315 316 317 314 315 313 310 310 312 312 313 314 314 313 312 307 307 307 309 309 306 304 302 300 296 294 294 294 294 295 295 294 294 294 293 293 293 292 291 291 290 287 286
315 314 316 320 316 316 316 315 314 312 311 312 313 313 312 312 311 309 308 306 308 307 306 307 302 299 297 296 296 294 294 293 293 293 293 293 292 291 290 290 288 286 285 284
311 310 314 319 315 320 317 313 314 315 314 312 312 313 313 313 311 309 309 308 308 306 306 304 304 301 301 300 297 295 294 293 291 291 291 291 291 289 289 288 287 285 284 283
309 310 314 318 320 316 313 311 311 314 316 314 314 313 313 312 308 309 309 304 308 307 305 303 304 303 303 301 298 295 293 291 289 289 289 289 289 287 286 285 284 283 283 282
307 311 312 313 316 318 314 309 307 310 317 311 311 313 312 309 312 313 305 302 303 300 299 298 299 300 300 298 296 293 290 289 288 288 288 288 288 287 286 285 284 283 283 282
310 312 315 317 318 317 309 302 308 319 314 298 301 309 307 309 311 305 300 301 298 295 296 296 296 295 295 294 292 290 289 287 288 288 288 288 287 287 287 285 283 283 282 282
307 309 313 314 317 318 304 306 313 311 298 296 301 302 303 303 302 300 297 296 295 294 294 293 291 290 290 290 290 288 287 288 288 288 287 287 286 286 285 285 283 283 283 282
308 309 314 313 314 308 305 306 306 303 305 300 300 301 300 301 300 299 297 295 293 291 291 289 289 287 287 288 289 287 286 287 287 287 286 286 285 285 285 284 283 283 284 286
303 303 308 307 301 304 305 303 298 298 298 298 298 299 298 300 298 296 294 292 291 286 286 287 286 285 286 287 288 289 287 287 287 286 285 285 285 285 285 285 285 285 286 285
298 300 303 302 302 301 303 300 301 301 297 295 295 296 296 295 295 294 291 287 285 285 286 286 285 285 285 287 287 286 286 286 286 286 285 285 285 285 285 285 286 287 287 286
298 301 303 303 301 303 303 297 294 296 297 295 292 292 291 292 293 289 287 285 285 286 286 285 285 284 284 285 286 287 288 288 287 286 285 286 286 286 285 285 284 285 285 286
Wind_Speed
4 4 6 12 6 3 5 3 3 4 2 3 7 11 12 11 6 11 13 13 13 15 25 25 33 33 31 29 29 29 27 26 25 25 24 25 26 24 24 25 25 28 31 31
4 6 9 7 5 4 3 3 5 5 3 4 6 15 14 8 12 14 17 16 17 14 9 16 28 33 37 37 34 32 31 30 30 29 29 26 28 26 26 25 24 26 29 31
7 5 5 7 5 6 4 6 5 7 3 3 6 8 8 6 9 10 13 17 12 19 18 11 18 32 34 39 41 39 37 34 32 32 30 24 27 24 25 25 26 27 26 27
6 4 6 4 4 7 6 8 5 3 2 4 1 6 8 7 10 8 13 12 19 20 13 7 14 23 35 44 42 41 39 37 35 34 35 35 35 26 27 31 29 28 27 26
8 10 7 6 7 8 6 6 6 3 3 3 3 3 8 2 8 11 17 16 16 12 9 11 12 26 35 34 40 41 39 38 37 37 38 38 34 33 28 31 31 29 28 27
3 1 6 8 3 4 9 6 6 4 2 4 9 7 6 6 7 6 6 11 9 7 8 8 16 21 25 29 34 38 40 40 40 39 39 40 37 35 31 33 32 30 29 28
2 5 2 4 6 4 2 6 1 2 0 9 3 5 18 6 8 9 11 14 5 5 6 7 8 10 18 25 29 33 38 40 43 42 41 40 40 37 36 38 37 34 32 31
8 7 11 7 9 9 9 8 6 8 5 4 3 8 8 10 8 10 11 10 3 3 5 6 7 12 19 24 29 30 31 32 40 42 42 42 40 37 37 37 38 38 37 36
6 6 2 3 2 10 6 8 5 1 2 2 6 10 11 13 14 8 13 9 7 8 8 9 8 14 17 22 26 29 27 31 38 40 40 40 39 38 38 37 37 39 38 37
6 4 2 1 2 1 6 5 3 1 4 4 6 6 11 5 8 11 12 10 8 8 8 7 6 12 17 21 23 27 29 34 38 39 39 39 39 38 36 37 39 40 40 40
5 2 2 3 7 9 3 4 2 4 4 5 2 7 8 11 9 9 9 6 5 6 7 7 6 11 14 17 21 26 30 31 34 37 39 39 39 37 36 37 39 40 40 40
8 3 8 11 3 4 2 6 12 5 6 3 2 14 3 7 6 6 8 4 4 4 5 4 5 10 14 20 23 27 29 34 38 38 38 40 40 40 38 37 38 39 40 42
8 4 1 7 1 2 6 6 5 4 3 8 7 13 2 4 7 4 6 5 6 5 4 4 4 8 15 19 23 27 30 34 36 39 39 40 41 41 40 39 38 39 41 44
9 5 8 13 7 5 6 7 15 16 7 22 10 29 21 4 6 8 8 6 7 8 7 6 6 7 15 21 25 27 30 33 37 39 40 40 42 43 42 41 40 40 43 46
5 10 13 19 8 3 7 8 14 17 24 14 30 22 33 15 16 16 14 8 9 11 8 9 9 9 13 18 24 28 30 34 38 39 40 42 42 42 40 40 39 40 43 47
4 4 11 17 18 18 10 8 10 22 24 21 32 28 32 22 8 7 13 15 15 12 12 11 12 9 12 21 26 28 32 35 36 38 39 37 40 41 40 38 39 40 44 47
4 3 5 22 18 10 10 25 27 17 14 23 18 30 21 18 17 9 11 12 16 14 14 14 11 10 17 27 31 31 30 30 35 35 35 39 39 39 39 40 39 40 44 47
6 5 5 10 3 13 12 9 24 28 28 22 22 27 27 22 12 8 16 12 15 13 13 12 12 15 23 26 26 26 26 31 33 32 34 37 39 38 39 39 40 40 42 45
16 10 4 4 8 9 6 8 8 12 24 21 24 30 31 23 2 19 13 12 18 15 9 9 17 19 20 20 21 24 26 29 28 29 31 34 36 34 35 34 35 35 37 38
20 22 16 16 19 12 5 11 9 6 13 10 19 25 24 4 6 17 2 2 3 5 7 11 14 14 14 15 16 23 24 25 25 25 27 29 32 33 34 33 33 33 33 32
4 6 18 17 15 8 7 6 2 10 6 2 4 13 4 7 9 4 3 6 2 3 8 10 11 11 11 9 16 19 20 19 21 23 24 26 29 32 32 32 30 32 31 32
9 5 6 9 15 12 5 4 10 4 0 3 4 6 8 8 7 5 5 5 6 4 2 3 1 1 1 8 14 15 16 17 17 20 23 25 27 27 28 29 28 29 30 28
8 6 3 6 1 5 3 5 4 3 5 5 5 4 4 4 5 4 5 3 4 4 4 1 6 7 5 9 12 15 14 17 20 21 23 24 25 25 28 29 28 26 28 26
5 4 3 4 5 7 12 6 5 3 8 4 6 3 2 4 4 4 3 5 5 4 2 4 10 10 9 8 9 13 20 20 22 23 24 25 26 26 26 26 29 29 27 25
3 4 4 7 11 9 12 5 6 8 8 7 4 4 6 6 5 3 1 1 1 3 5 4 9 12 13 11 13 15 16 19 21 21 22 22 22 23 23 23 26 26 26 28
6 7 4 7 6 5 8 0 4 6 9 8 6 4 5 4 4 3 3 2 3 4 7 10 13 14 13 15 15 14 14 16 19 21 21 22 23 23 24 24 19 19 19 20
Wind_Direction
2 95 198 212 182 136 139 166 208 244 240 199 236 260 262 269 245 256 255 250 246 240 250 238 236 227 222 221 218 216 212 210 206 200 193 195 193 197 203 201 199 204 196 192
47 215 226 121 159 144 152 157 255 279 219 183 277 269 266 237 252 237 245 247 243 245 238 225 224 223 219 219 216 215 214 211 208 208 198 195 193 194 198 192 195 194 197 191
173 212 119 148 156 161 201 179 224 225 344 251 332 280 263 272 251 257 249 244 247 238 243 229 201 217 216 217 217 215 214 212 209 205 200 195 190 192 195 192 192 192 193 192
223 211 161 172 188 153 230 206 174 170 63 251 79 286 283 256 251 248 258 237 242 241 240 227 202 208 215 221 218 218 215 211 209 205 203 199 193 186 198 194 191 189 189 192
234 171 176 184 197 163 224 128 155 131 166 351 191 269 259 29 278 251 249 249 248 246 227 237 214 219 225 218 217 215 214 213 210 205 206 205 203 201 198 193 191 191 190 190
235 341 163 193 120 154 148 80 55 52 86 280 182 181 224 188 218 262 249 247 243 240 228 234 242 236 226 223 216 212 210 209 208 207 208 209 208 200 192 190 191 190 189 188
135 208 192 150 91 54 128 113 297 328 30 236 345 193 257 280 243 230 251 267 240 233 227 225 206 213 215 206 203 203 204 203 207 205 209 210 212 206 202 197 194 190 189 189
189 259 166 192 189 168 197 167 172 204 195 251 54 235 253 238 279 253 263 275 286 178 240 251 251 208 211 207 203 199 199 201 203 204 207 210 211 209 208 205 201 198 197 194
176 266 225 167 155 156 193 209 193 116 91 25 225 277 280 257 266 264 257 256 245 237 243 240 230 229 212 208 205 202 198 201 203 205 207 209 210 211 209 206 206 201 197 196
217 269 195 184 135 337 177 168 84 351 190 236 265 267 238 285 251 253 260 258 259 222 234 235 225 217 219 219 218 212 207 203 203 203 205 210 212 213 213 210 205 203 201 194
163 161 222 151 210 169 149 207 189 147 169 191 253 259 216 228 250 271 271 275 263 245 228 224 217 219 214 217 214 213 207 203 201 201 203 210 212 212 213 212 210 208 205 197
208 160 249 226 242 206 263 219 183 165 220 245 183 265 183 233 251 247 265 258 286 262 261 244 225 210 206 212 211 210 207 206 207 205 205 210 212 211 212 212 211 209 204 197
178 175 314 312 323 329 212 193 187 110 75 214 200 258 12 326 327 278 280 292 268 262 234 248 230 216 207 214 212 210 210 208 208 206 205 206 210 210 212 211 211 208 202 197
161 151 196 227 208 136 185 198 204 198 204 241 223 257 255 303 324 317 298 253 258 259 246 239 238 234 220 219 217 215 214 211 209 207 205 205 206 210 211 211 209 207 203 200
222 202 215 243 250 236 204 183 200 210 229 224 252 244 261 254 244 252 265 273 252 252 221 224 238 229 221 221 222 221 218 212 209 205 205 207 209 210 209 210 209 205 202 201
219 254 203 246 242 228 238 232 214 209 225 234 244 248 254 254 228 229 235 254 272 264 255 246 235 220 214 219 222 217 216 211 207 203 205 205 208 207 209 207 206 205 202 199
236 187 205 243 244 225 236 229 229 228 220 215 232 240 257 258 249 247 247 233 245 253 256 263 250 228 226 225 224 216 213 206 205 204 203 205 205 203 204 207 205 201 198 198
263 263 216 249 155 226 235 229 226 231 238 227 244 256 259 257 265 242 246 254 254 249 249 252 255 246 245 249 238 228 216 209 202 201 201 202 202 200 202 201 201 198 194 194
220 231 254 248 233 276 306 236 180 185 246 234 232 248 255 262 303 269 263 222 248 260 260 258 267 270 266 254 240 220 206 205 198 200 200 199 198 192 193 192 191 190 188 188
221 222 235 251 253 257 251 252 187 127 244 224 210 241 250 184 224 263 11 355 329 341 324 310 302 284 270 256 223 199 192 191 196 198 199 199 196 194 192 192 189 188 189 186
178 219 231 235 243 239 242 236 174 181 232 217 208 236 189 194 223 203 237 276 209 260 292 304 301 282 278 240 204 188 185 189 198 197 199 198 198 198 199 192 184 185 180 189
243 207 214 236 242 255 178 108 189 206 223 185 229 226 210 220 231 241 228 237 275 295 322 343 298 302 208 194 188 176 180 188 190 190 186 186 190 188 186 185 182 182 184 181
235 212 239 224 186 309 298 296 309 324 275 237 239 254 223 198 234 300 299 300 303 319 323 37 137 117 119 167 184 162 165 166 166 170 170 172 176 180 181 175 169 165 175 182
265 213 228 317 304 261 275 234 205 183 250 269 268 270 232 254 246 239 300 327 334 337 330 135 127 113 103 142 163 161 155 159 159 160 161 165 167 168 174 177 177 174 182 187
244 123 202 261 279 289 267 242 289 260 238 254 244 246 254 244 255 224 240 218 94 16 350 88 112 113 104 116 124 140 149 155 149 150 153 153 161 165 167 178 186 196 207 200
189 231 219 251 218 226 276 24 343 290 255 251 229 235 232 234 226 123 86 63 58 95 114 110 108 103 102 114 121 132 149 164 158 151 154 158 159 165 172 176 174 193 204 209